Temp
15 16 16 17 19 18 18 18 18 19 19 19 19 19 18 18 18 17 16 15 12 13 13 13 11 11 11 11 11 11 11 10 9 10 10 10 10 10 9 9 9 9 9 9
16 16 17 18 19 17 18 19 20 19 19 19 19 19 19 19 18 17 17 16 14 14 13 13 12 11 11 11 12 12 11 11 11 11 10 10 10 10 10 10 10 9 10 10
16 17 17 18 19 18 19 20 20 18 18 19 19 19 19 19 18 18 17 17 15 14 14 13 13 14 13 12 12 12 12 12 11 11 10 10 10 10 10 10 10 10 10 10
17 17 18 18 19 18 19 19 20 19 19 20 19 19 18 18 16 17 17 17 17 16 15 14 13 13 14 14 12 12 12 11 11 11 10 10 10 10 10 9 10 10 10 10
17 18 18 19 19 18 20 18 19 19 20 20 20 19 20 17 15 17 17 17 17 16 16 15 14 12 12 14 13 12 12 12 11 11 10 10 10 10 10 9 9 9 9 9
17 18 18 18 19 19 19 17 19 19 20 21 21 20 19 17 18 17 17 17 17 17 16 15 14 13 13 14 13 12 12 12 12 11 11 11 10 10 10 10 9 9 8 8
17 18 18 18 19 19 19 19 20 20 21 19 18 19 19 19 19 19 18 18 17 17 16 15 14 13 14 14 14 13 12 12 12 12 12 12 11 10 10 10 9 9 9 9
17 18 18 18 18 19 19 20 20 20 13 13 17 18 17 19 19 18 18 18 17 16 16 14 13 14 14 14 14 13 13 12 12 12 12 11 11 10 10 10 10 10 10 10
18 18 18 18 18 18 19 19 20 21 16 17 19 19 19 19 19 18 18 17 16 16 15 14 13 14 14 14 14 13 13 13 12 12 11 11 10 10 10 10 9 10 10 10
18 19 19 19 18 18 19 18 20 20 17 17 20 20 19 19 18 18 18 17 16 15 15 14 13 12 14 14 14 13 13 12 12 12 11 11 11 11 11 10 9 9 10 10
17 18 19 19 19 19 19 19 18 19 20 21 21 20 19 19 19 18 18 17 16 15 14 14 13 12 14 14 13 13 13 12 12 11 11 11 10 10 10 10 9 9 9 9
17 18 19 20 19 19 19 19 19 20 20 21 21 18 18 18 18 18 18 17 16 15 14 13 12 12 14 13 13 12 12 11 11 11 10 10 10 10 9 9 8 8 9 9
17 17 18 19 19 19 19 20 20 21 21 22 21 18 17 17 18 18 17 17 16 15 14 13 12 11 13 13 12 12 11 11 11 10 10 10 9 9 9 8 8 8 8 8
17 17 18 19 14 18 19 19 20 20 21 19 17 15 16 14 17 17 17 17 16 15 14 13 12 12 12 13 12 12 11 11 10 10 10 9 9 9 9 8 8 8 8 8
16 17 18 18 16 17 20 20 20 20 20 19 17 17 16 17 15 17 17 16 16 15 14 13 13 13 13 13 12 12 12 12 11 10 9 9 9 9 8 8 8 8 8 8
16 16 17 18 17 17 19 20 20 19 19 19 19 14 14 14 15 16 16 16 15 14 14 13 12 12 12 12 12 12 12 12 11 10 9 9 9 8 8 8 8 8 8 8
16 16 17 18 16 16 17 19 19 19 18 18 19 17 16 14 12 14 15 15 14 14 13 13 12 11 11 11 12 12 12 11 10 9 8 8 8 8 8 8 8 8 8 8
16 16 17 17 14 15 18 19 19 19 18 18 19 18 16 14 13 16 15 14 14 14 14 12 11 10 10 10 12 12 11 9 8 7 8 8 8 8 8 8 9 8 8 8
17 17 17 17 18 18 18 19 19 19 19 19 19 19 16 15 15 15 15 14 14 14 14 13 11 10 10 10 11 11 9 9 6 7 7 7 7 7 7 8 8 8 8 8
17 17 17 18 18 19 18 17 18 19 18 18 18 18 17 16 16 14 15 15 14 14 14 12 11 11 11 11 10 10 9 9 7 8 6 6 7 7 6 8 7 8 8 8
17 18 17 18 17 16 17 16 18 18 16 17 17 17 16 16 16 15 15 14 14 14 13 12 11 11 11 10 10 8 8 8 8 7 7 7 7 7 7 7 7 8 8 8
17 18 18 18 18 15 14 14 17 16 14 15 15 16 16 16 16 15 14 14 14 13 13 12 12 10 10 10 9 9 9 8 8 7 7 7 7 7 7 7 7 8 8 8
16 14 15 14 13 13 13 13 14 14 13 14 14 16 16 15 14 14 14 13 13 13 13 12 11 10 9 9 9 8 8 7 7 7 7 7 7 7 7 7 7 7 7 7
13 14 14 13 13 14 13 11 10 14 13 13 12 15 15 14 14 13 13 13 12 12 12 12 10 9 8 8 8 7 7 7 7 7 6 6 7 7 7 6 6 6 6 6
11 13 14 13 13 14 13 12 13 13 13 13 12 11 13 12 12 12 12 12 12 11 11 11 10 9 9 8 7 7 7 7 6 6 6 6 6 7 6 7 6 6 6 6
11 12 12 11 13 13 13 13 13 13 13 13 12 11 11 12 12 11 12 11 11 11 11 10 9 9 8 8 7 7 7 6 6 6 6 6 6 6 6 6 6 6 6 5
Height
3176 3179 3177 3178 3177 3179 3180 3181 3179 3177 3177 3178 3177 3176 3173 3173 3179 3179 3168 3167 3179 3182 3178 3182 3185 3184 3180 3181 3182 3182 3184 3184 3184 3185 3190 3191 3191 3188 3188 3184 3191 3191 3189 3182
3175 3172 3175 3175 3176 3179 3178 3176 3174 3173 3178 3179 3176 3175 3176 3175 3178 3181 3170 3166 3171 3173 3174 3180 3183 3186 3184 3179 3179 3181 3184 3185 3187 3188 3190 3189 3188 3188 3188 3189 3189 3190 3188 3183
3169 3170 3173 3173 3174 3177 3175 3173 3173 3175 3178 3176 3174 3173 3173 3177 3178 3181 3180 3173 3164 3162 3176 3178 3181 3182 3183 3181 3181 3183 3184 3186 3187 3187 3188 3188 3188 3189 3188 3189 3189 3189 3186 3183
3167 3167 3169 3171 3170 3171 3170 3171 3173 3173 3174 3171 3170 3170 3171 3171 3173 3179 3180 3179 3176 3175 3179 3181 3181 3181 3182 3181 3181 3183 3184 3185 3186 3187 3186 3187 3188 3189 3188 3188 3186 3185 3184 3182
3163 3164 3164 3166 3166 3167 3168 3171 3173 3171 3169 3168 3167 3169 3168 3173 3175 3174 3178 3178 3178 3178 3180 3182 3182 3181 3181 3181 3182 3183 3184 3185 3186 3187 3187 3187 3187 3189 3187 3187 3186 3184 3181 3179
3160 3161 3163 3163 3164 3165 3168 3173 3171 3169 3166 3162 3155 3163 3164 3168 3166 3168 3174 3177 3178 3178 3179 3182 3182 3181 3180 3182 3182 3183 3184 3185 3186 3187 3188 3187 3188 3188 3186 3186 3184 3182 3181 3178
3157 3157 3159 3161 3161 3163 3165 3165 3164 3163 3159 3165 3165 3164 3163 3164 3165 3169 3172 3173 3175 3179 3179 3181 3183 3182 3181 3183 3183 3183 3184 3185 3186 3187 3188 3188 3188 3188 3187 3185 3182 3181 3178 3175
3153 3153 3155 3157 3159 3160 3161 3162 3159 3159 3176 3173 3174 3165 3168 3165 3164 3166 3167 3170 3174 3177 3178 3179 3180 3180 3182 3182 3183 3183 3184 3185 3185 3186 3187 3187 3187 3186 3184 3182 3180 3177 3175 3172
3147 3149 3151 3153 3156 3158 3158 3157 3157 3155 3170 3175 3163 3163 3163 3163 3164 3166 3165 3166 3171 3175 3177 3178 3178 3178 3180 3182 3183 3183 3184 3184 3184 3185 3186 3186 3185 3183 3181 3179 3177 3175 3172 3169
3144 3144 3145 3148 3153 3154 3155 3157 3156 3154 3161 3164 3154 3157 3160 3165 3165 3166 3167 3168 3169 3173 3176 3178 3179 3178 3179 3180 3182 3183 3183 3183 3183 3184 3184 3184 3183 3183 3180 3178 3176 3174 3171 3167
3144 3143 3142 3143 3145 3148 3152 3153 3155 3153 3151 3145 3146 3153 3156 3160 3161 3164 3167 3170 3170 3172 3175 3177 3178 3178 3178 3179 3181 3181 3182 3181 3180 3181 3182 3183 3183 3180 3178 3176 3174 3172 3169 3166
3142 3141 3138 3136 3139 3144 3146 3148 3150 3147 3149 3145 3144 3157 3161 3163 3162 3162 3165 3169 3170 3171 3175 3176 3175 3175 3177 3178 3179 3180 3178 3178 3179 3180 3180 3180 3181 3179 3176 3174 3173 3170 3168 3165
3139 3139 3137 3135 3138 3139 3142 3143 3144 3143 3141 3141 3142 3154 3156 3160 3161 3161 3164 3166 3163 3170 3173 3175 3174 3173 3175 3177 3177 3177 3177 3177 3176 3177 3178 3179 3178 3177 3174 3172 3171 3169 3166 3162
3134 3135 3134 3132 3141 3140 3139 3139 3140 3140 3141 3143 3148 3153 3156 3163 3163 3162 3163 3166 3167 3168 3170 3171 3171 3172 3173 3174 3175 3175 3175 3174 3174 3174 3175 3176 3175 3174 3173 3171 3169 3167 3164 3161
3131 3130 3132 3134 3139 3136 3133 3134 3137 3138 3138 3140 3144 3147 3154 3156 3165 3160 3164 3166 3168 3167 3167 3167 3167 3168 3169 3171 3172 3172 3172 3170 3170 3171 3172 3172 3171 3171 3170 3169 3167 3165 3162 3159
3126 3127 3131 3133 3132 3133 3126 3130 3134 3137 3139 3135 3140 3146 3150 3152 3155 3157 3166 3163 3165 3165 3166 3166 3165 3164 3166 3167 3169 3169 3169 3167 3167 3167 3167 3168 3169 3168 3166 3164 3163 3161 3158 3154
3122 3124 3126 3127 3131 3136 3133 3130 3133 3137 3136 3140 3137 3138 3143 3153 3153 3156 3165 3164 3162 3163 3162 3162 3163 3162 3162 3163 3164 3165 3165 3164 3164 3164 3163 3164 3164 3164 3163 3160 3158 3155 3152 3149
3119 3120 3122 3123 3130 3138 3128 3127 3130 3132 3137 3138 3138 3135 3137 3142 3136 3157 3159 3161 3156 3158 3158 3159 3158 3159 3160 3160 3159 3161 3163 3166 3170 3171 3168 3161 3160 3160 3158 3155 3154 3150 3148 3144
3111 3117 3120 3119 3118 3122 3125 3127 3128 3131 3136 3135 3139 3143 3141 3147 3150 3153 3153 3151 3153 3154 3156 3157 3157 3157 3157 3156 3155 3159 3160 3167 3163 3168 3165 3161 3156 3155 3153 3150 3149 3146 3142 3139
3107 3110 3116 3116 3114 3111 3120 3121 3120 3125 3131 3141 3135 3138 3137 3139 3141 3142 3142 3146 3149 3151 3153 3153 3152 3150 3150 3154 3156 3153 3154 3152 3153 3159 3151 3149 3152 3152 3148 3145 3143 3140 3137 3134
3101 3106 3110 3109 3113 3116 3116 3120 3125 3126 3135 3131 3132 3136 3136 3141 3142 3142 3143 3144 3145 3147 3148 3147 3147 3145 3147 3151 3153 3153 3153 3155 3154 3154 3148 3148 3149 3146 3143 3141 3138 3134 3131 3128
3104 3104 3106 3106 3107 3118 3124 3124 3125 3121 3128 3135 3130 3132 3135 3138 3140 3140 3141 3142 3142 3142 3143 3141 3141 3143 3146 3147 3148 3149 3148 3149 3148 3146 3144 3145 3144 3142 3139 3135 3133 3129 3126 3124
3103 3102 3101 3107 3110 3111 3118 3117 3124 3122 3132 3136 3128 3130 3131 3133 3137 3138 3139 3139 3139 3140 3140 3140 3141 3142 3144 3146 3146 3145 3145 3144 3143 3143 3143 3142 3140 3137 3133 3130 3128 3124 3122 3119
3100 3101 3104 3108 3111 3111 3117 3122 3121 3132 3132 3132 3126 3128 3129 3132 3134 3136 3137 3137 3138 3138 3139 3139 3139 3140 3142 3143 3143 3144 3144 3144 3143 3142 3139 3137 3134 3131 3128 3125 3123 3120 3117 3114
3089 3108 3108 3109 3105 3106 3110 3110 3123 3135 3132 3124 3123 3126 3129 3131 3134 3135 3136 3135 3135 3136 3137 3137 3138 3139 3140 3141 3142 3142 3143 3142 3140 3139 3136 3131 3128 3127 3124 3122 3119 3116 3112 3108
3108 3104 3106 3105 3096 3100 3112 3119 3122 3123 3123 3126 3125 3126 3129 3133 3132 3133 3134 3135 3135 3136 3136 3137 3138 3138 3138 3139 3140 3141 3140 3139 3136 3133 3130 3129 3125 3122 3120 3116 3112 3110 3106 3103
Wind_Speed
21 20 23 21 16 12 15 13 16 11 2 4 10 5 2 10 3 8 12 19 5 20 9 9 9 12 13 17 7 6 5 7 10 10 7 5 6 5 10 6 9 17 25 24
21 26 21 21 19 4 15 12 10 3 5 8 8 7 10 9 6 6 10 14 5 17 13 12 12 13 15 17 11 7 3 5 6 9 8 7 5 9 8 10 12 15 17 15
25 24 20 22 21 16 14 15 4 1 12 11 10 13 11 5 3 8 9 10 8 11 9 10 7 2 8 13 7 9 4 1 2 3 4 5 6 8 10 11 13 13 14 14
24 21 25 21 25 15 20 16 5 9 11 15 11 17 19 18 12 10 11 10 11 7 5 9 12 7 4 6 5 6 6 6 6 5 3 3 4 6 7 10 15 13 14 14
25 22 23 22 25 24 15 5 9 14 13 18 17 14 7 10 6 10 8 10 10 10 9 7 8 9 8 8 2 5 5 5 7 7 6 3 3 5 8 11 15 16 17 24
22 20 22 25 25 25 21 12 13 15 16 21 23 19 15 17 7 8 6 13 8 9 9 7 8 8 13 5 3 1 2 2 3 3 4 2 3 5 8 11 14 16 16 14
21 24 21 24 23 19 22 20 15 16 16 5 13 5 11 10 12 8 7 11 9 10 12 10 13 14 15 2 2 1 1 1 1 3 4 4 5 6 9 12 15 16 16 17
23 20 25 23 24 26 26 22 24 12 4 18 4 10 13 14 11 8 8 11 12 13 10 10 14 14 7 4 2 2 2 3 4 5 5 5 5 9 13 14 13 14 13 14
22 21 21 21 23 28 25 21 26 24 8 20 27 15 17 9 7 4 10 16 15 13 13 10 9 6 7 5 6 6 6 7 8 7 6 6 8 12 14 12 9 10 11 13
23 19 19 22 22 26 24 22 17 23 10 6 22 9 19 8 5 4 9 15 17 17 13 12 11 8 5 6 6 7 9 10 11 9 9 7 9 12 10 8 10 14 16 19
25 23 18 25 29 25 24 22 24 27 25 7 5 12 13 15 2 6 9 14 17 16 14 12 13 15 9 5 3 5 8 11 12 8 8 6 10 11 7 9 12 16 17 21
26 21 23 23 31 23 23 25 26 33 16 18 14 13 4 5 3 8 10 14 18 17 14 14 13 10 8 3 3 4 8 11 9 8 7 3 15 13 11 13 16 18 18 22
21 30 27 20 24 24 26 25 25 21 23 17 6 11 11 5 4 1 8 12 23 19 17 15 15 13 5 4 4 6 8 10 10 9 8 9 7 10 15 15 16 19 19 23
21 28 27 17 29 15 25 29 24 25 24 8 10 6 8 13 5 9 8 12 19 19 18 19 19 17 12 8 7 8 9 9 6 10 9 11 10 11 14 15 18 19 22 23
27 30 29 14 14 26 31 29 22 15 18 6 7 8 10 22 15 10 10 13 15 17 21 22 23 24 14 11 11 10 10 7 6 11 11 11 11 13 16 18 19 20 23 25
23 30 26 17 7 17 13 18 15 13 17 7 4 16 14 5 17 12 11 14 15 17 21 24 24 27 20 17 14 13 12 8 8 10 11 12 14 16 20 21 20 23 25 27
25 28 27 19 6 18 29 16 16 13 21 8 7 10 8 21 10 9 8 9 15 17 22 25 26 29 21 17 15 15 14 11 12 13 12 13 15 19 21 22 25 28 29 30
24 28 28 27 20 25 25 15 20 17 13 10 1 9 13 15 17 12 10 10 12 13 11 19 23 17 11 17 21 19 15 12 12 14 14 14 16 19 21 26 29 31 31 30
22 26 28 28 23 15 17 17 9 11 13 7 6 4 13 17 6 9 5 7 12 9 7 13 22 20 25 26 28 19 13 7 8 16 17 15 15 21 27 31 31 29 27 25
25 24 30 25 22 14 16 15 9 12 12 12 4 10 4 7 8 3 5 7 6 11 9 9 21 28 28 25 18 17 17 27 10 16 15 14 21 25 29 30 27 25 24 24
28 31 32 33 12 6 20 5 12 16 5 8 5 6 8 9 11 11 10 12 13 13 10 16 21 26 27 19 19 14 17 11 22 28 10 15 21 27 31 27 26 25 24 23
22 23 30 34 24 12 9 26 8 12 6 1 8 8 8 13 12 13 13 13 16 14 10 18 19 19 20 21 19 19 17 23 13 12 16 20 25 29 27 26 24 23 21 21
11 9 7 2 7 22 9 14 9 9 10 7 7 11 11 11 12 12 11 12 11 8 7 10 14 18 17 16 19 19 21 12 11 15 18 23 26 27 23 21 19 20 22 23
14 15 12 6 5 14 12 10 13 2 1 2 3 7 8 8 6 6 8 7 5 5 7 10 12 16 19 21 14 9 9 11 15 18 23 28 27 23 20 20 21 22 23 23
16 12 7 2 7 10 21 12 24 10 5 3 5 4 4 5 4 5 5 8 5 3 6 9 7 9 8 9 9 8 11 14 18 23 27 28 26 22 22 23 23 23 23 24
6 6 8 16 13 16 18 12 11 6 4 8 8 11 5 6 6 4 4 3 2 4 7 9 7 7 5 7 9 11 14 18 22 28 30 25 23 23 24 24 26 24 24 24
Wind_Direction
221 223 227 225 230 243 254 213 210 201 224 250 283 256 173 169 215 226 246 339 177 187 195 214 224 234 274 290 330 317 301 240 249 263 263 268 285 1 311 179 338 325 326 316
217 223 223 229 242 265 239 253 252 163 312 258 259 261 234 240 239 214 264 276 265 128 152 203 215 212 238 273 332 348 343 245 234 242 262 278 317 289 321 337 338 328 326 0
220 222 224 231 231 235 249 247 199 132 246 266 264 262 257 259 255 244 215 260 254 109 166 227 259 33 257 261 311 338 328 298 245 256 267 291 294 291 303 317 321 316 329 335
224 228 222 230 238 231 258 243 301 218 248 257 234 260 240 211 271 225 232 201 202 180 199 231 236 238 336 308 281 321 332 305 286 289 299 282 284 297 294 307 314 322 324 315
225 223 232 223 230 221 238 133 257 277 259 258 229 254 192 186 226 205 232 211 197 190 197 194 271 219 229 316 311 284 319 320 295 295 302 277 283 293 300 300 296 316 335 327
228 224 230 230 234 239 231 246 238 255 249 257 259 209 181 187 207 192 189 205 193 194 181 144 171 209 256 292 303 221 270 316 299 283 291 270 270 295 302 316 314 323 326 331
227 230 230 228 238 227 229 244 242 241 231 63 11 358 288 177 132 158 191 181 183 180 174 182 195 218 247 275 259 176 253 270 270 275 286 295 322 322 312 305 306 315 304 296
218 221 226 222 225 220 222 229 242 240 66 306 304 218 269 174 167 178 165 178 181 178 191 193 210 224 221 250 254 227 238 259 255 255 272 293 314 323 320 327 320 318 323 323
214 233 222 224 221 224 241 243 241 263 262 261 259 265 221 160 158 179 165 173 177 174 174 191 208 209 203 237 255 263 252 262 268 273 274 292 327 329 330 332 342 355 359 352
237 257 218 215 214 229 222 240 253 260 173 221 236 136 145 163 187 197 180 178 175 180 173 183 180 228 205 226 249 265 262 264 267 274 275 299 323 336 346 2 19 20 18 14
231 247 251 213 209 221 226 233 257 250 272 295 251 125 135 143 167 188 191 190 181 181 167 174 181 192 225 229 246 272 277 279 273 266 267 292 336 344 348 3 359 356 355 359
221 237 250 239 214 215 225 220 225 240 227 253 274 151 120 335 217 197 195 195 187 181 171 180 196 204 215 218 253 273 311 295 294 271 248 278 314 330 350 340 331 338 340 352
218 230 256 242 227 205 221 227 225 238 251 263 307 129 151 60 65 151 180 190 191 188 185 182 196 219 232 212 243 304 313 284 300 266 252 294 325 325 342 335 342 342 347 346
223 225 233 244 238 260 218 224 235 243 256 96 81 92 222 229 233 150 172 197 198 198 199 200 223 242 226 236 250 295 287 290 272 242 244 293 307 325 337 341 337 332 335 335
218 229 234 223 212 260 222 215 222 250 266 84 130 220 191 209 230 172 186 199 198 193 205 214 237 260 231 241 241 264 273 288 248 229 281 299 293 315 320 327 330 329 329 332
216 224 230 253 232 257 301 208 227 236 294 204 337 141 74 1 162 166 193 181 187 200 207 231 245 261 250 236 243 259 258 267 232 240 263 274 286 306 315 319 319 324 326 327
213 215 225 229 197 200 266 228 225 229 258 256 209 206 231 136 223 178 187 172 178 207 229 245 246 251 244 245 254 259 255 242 227 230 249 266 288 306 313 316 318 320 319 318
210 213 220 237 173 232 229 225 204 204 204 233 234 195 148 182 117 172 169 174 178 210 283 250 243 236 236 242 251 252 244 241 242 248 253 272 296 307 309 311 314 314 313 313
205 208 218 232 232 211 244 205 228 235 225 192 234 206 152 134 135 133 157 147 181 227 281 263 245 248 223 232 250 262 229 240 273 255 259 284 305 310 310 308 310 310 309 308
207 201 211 222 245 235 223 298 215 208 241 240 103 123 189 0 198 125 294 311 302 301 304 258 236 241 249 254 252 237 257 304 250 248 299 330 312 312 303 308 307 308 308 312
218 193 206 226 223 254 236 279 243 192 62 152 143 167 207 251 282 290 274 283 297 302 271 243 244 245 249 246 237 240 305 295 298 296 313 306 308 312 310 309 310 314 317 316
224 204 208 218 216 133 110 237 225 210 210 150 144 224 273 298 289 266 272 288 296 293 263 239 241 241 239 235 242 277 299 304 284 308 310 305 308 313 313 311 313 313 316 318
195 36 181 119 117 132 140 88 65 146 163 198 237 294 302 294 286 288 298 287 285 283 252 232 231 227 233 241 269 285 286 278 302 295 299 306 308 311 308 309 314 316 318 317
176 80 39 37 231 202 212 113 32 41 209 173 207 289 290 290 294 287 281 275 275 303 290 269 242 239 242 268 263 240 246 274 289 300 313 315 318 317 317 318 318 318 320 323
36 59 24 119 49 292 272 218 250 243 187 162 201 273 262 182 207 240 282 307 273 301 314 303 272 248 218 201 220 248 270 284 304 312 317 321 320 318 317 316 318 321 323 328
309 336 0 0 155 127 151 174 215 245 207 187 224 204 242 208 214 262 331 266 323 311 281 271 257 254 235 228 253 271 289 300 307 316 318 317 313 317 317 317 320 324 327 327